Findlay, OH

3:06 PM EDT on September 25, 2017 (GMT -0400)
Findlay

Weather History for KFDY - January, 2013

Change the Weather History Date:

Wednesday, January 2, 2013

  Actual Average Record
Temperature  
Mean Temperature 13 °F -  
Max Temperature 19 °F 33 °F 59 °F (2000)
Min Temperature 7 °F 20 °F -4 °F (1974)
Degree Days  
Heating Degree Days 52    
Moisture  
Dew Point 9 °F    
Average Humidity 82    
Maximum Humidity 92    
Minimum Humidity 70    
Precipitation  
Precipitation 0.00 in - - ()
Sea Level Pressure  
Sea Level Pressure 30.20 in    
Wind  
Wind Speed 6 mph (WSW)    
Max Wind Speed 9 mph    
Max Gust Speed -    
Visibility 9 miles    
Events      
Averages and records for this station are not official NWS values.
T = Trace of Precipitation, MM = Missing Value Source: NWS Daily Summary

Daily Weather History Graph

Daily Weather History Graph

Search for Another Location

Airport or City:

Trip Planner

Search our weather history database for the weather conditions in past years. The results will help you decide how hot, cold, wet, or windy it might be!

Date:

Astronomy

Jan. 02, 2013 Rise Set
Actual Time 7:59 AM EST 5:18 PM EST
Civil Twilight 7:28 AM EST 5:49 PM EST
Nautical Twilight 6:54 AM EST 6:23 PM EST
Astronomical Twilight 6:20 AM EST 6:57 PM EST
Moon 10:52 PM EST (1/2) 10:38 AM EST (1/2)
Length of Visible Light 10h 20m
Length of Day
9h 18m
Waning Gibbous, 75% of the Moon is Illuminated
Jan 2
Waning Gibbous
Jan 4
Last Quarter
Jan 11
New
Jan 18
First Quarter
Jan 26
Full

Hourly Weather History & Observations

Time (EST) Temp. Windchill Dew Point Humidity Pressure Visibility Wind Dir Wind Speed Gust Speed Precip Events Conditions
12:53 AM 12.9 °F 6.9 °F 9.0 °F 84% 30.13 in 10.0 mi WSW 3.5 mph - N/A   Clear
1:53 AM 12.9 °F 3.8 °F 10.9 °F 92% 30.13 in 9.0 mi WSW 5.8 mph - N/A   Clear
2:53 AM 12.9 °F 1.6 °F 10.0 °F 88% 30.14 in 7.0 mi West 8.1 mph - N/A   Clear
3:53 AM 10.9 °F -0.8 °F 9.0 °F 92% 30.15 in 6.0 mi West 8.1 mph - N/A   Clear
4:53 AM 9.0 °F -0.9 °F 6.1 °F 88% 30.15 in 6.0 mi WSW 5.8 mph - N/A   Clear
5:53 AM 10.9 °F -1.8 °F 8.1 °F 88% 30.17 in 9.0 mi West 9.2 mph - N/A   Clear
7:53 AM 7.0 °F -3.3 °F 5.0 °F 92% 30.18 in 8.0 mi West 5.8 mph - N/A   Clear
8:53 AM 9.0 °F -3.2 °F 7.0 °F 92% 30.20 in 8.0 mi WSW 8.1 mph - N/A   Clear
9:53 AM 10.0 °F -0.9 °F 7.0 °F 87% 30.22 in 9.0 mi WSW 6.9 mph - N/A   Clear
10:53 AM 12.9 °F 1.6 °F 9.0 °F 84% 30.25 in 10.0 mi WSW 8.1 mph - N/A   Clear
11:53 AM 16.0 °F 4.4 °F 10.9 °F 81% 30.24 in 10.0 mi WSW 9.2 mph - N/A   Clear
12:53 PM 18.0 °F 7.7 °F 12.0 °F 78% 30.22 in 10.0 mi West 8.1 mph - N/A   Clear
1:53 PM 19.9 °F 11.1 °F 12.9 °F 74% 30.21 in 10.0 mi West 6.9 mph - N/A   Clear
2:53 PM 19.9 °F 12.1 °F 12.9 °F 74% 30.21 in 10.0 mi West 5.8 mph - N/A   Clear
3:53 PM 19.0 °F 10.0 °F 12.9 °F 77% 30.21 in 10.0 mi SSW 6.9 mph - N/A   Clear
4:15 PM 19.4 °F 9.5 °F 12.2 °F 74% 30.17 in 10.0 mi SSW 8.1 mph - N/A   Mostly Cloudy
4:53 PM 19.9 °F 11.1 °F 14.0 °F 78% 30.21 in 10.0 mi South 6.9 mph - N/A   Overcast
6:53 PM 15.1 °F 3.3 °F 10.0 °F 80% 30.24 in 8.0 mi SSW 9.2 mph - N/A   Overcast
7:53 PM 17.1 °F 10.0 °F 10.0 °F 74% 30.25 in 9.0 mi WSW 4.6 mph - N/A   Overcast
8:53 PM 15.1 °F 7.7 °F 9.0 °F 77% 30.24 in 9.0 mi SW 4.6 mph - N/A   Overcast
9:22 PM 12.2 °F 4.3 °F 6.8 °F 79% 30.20 in 9.0 mi SW 4.6 mph - N/A   Scattered Clouds
9:53 PM 10.9 °F 4.7 °F 6.1 °F 81% 30.24 in 9.0 mi SW 3.5 mph - N/A   Clear
10:53 PM 10.9 °F 4.7 °F 3.0 °F 70% 30.23 in 10.0 mi South 3.5 mph - N/A   Clear